sat.trackr.live / text

‹ back to catalog

STARLINK-3331

NORAD 50834 · 2022-001AH

PAYLOAD ACTIVE UNKNOWN

§ Identity

Operator
Country
US
Launch date
2022-01-06
Launch site
AFETR
Launch vehicle
Mass (kg)
RCS (m²)

Purposes: comms

External: N2YO · Heavens-Above · Gunter

§ Orbital elements

Epoch: 2026-09-20T00:05:53.242080Z

Period
93.90 min
Inclination
53.1601°
Eccentricity
0.0001134
Mean motion
15.33555813 rev/d
Perigee alt
464.4 km
Apogee alt
466.0 km
Semi-major
6,843.4 km
B*
-1.7912e-5
RAAN
12.3477°
Arg perigee
93.6882°
Mean anomaly
266.4250°
Rev number
25,979

§ Raw data

STARLINK-33311 50834U 22001AH  26263.00408845 -.00000962  00000+0 -17912-4 0  99952 50834  53.1601  12.3477 0001134  93.6882 266.4250 15.33555813259793

JSON: /api/v1/satellites/50834 · /tle

For live sub-satellite position, see the globe view (requires WebGL).

§ Visibility from observer

Set your observer location to see the next 7 days of passes ≥ 10°. The values pass through the URL so the page stays shareable.

No JS? Fill the form by hand. The geolocation button needs JavaScript.